• Processing (Info)

  • MPEC 2014-Q98 : 2014 QP362

    The following Minor Planet Electronic Circular may be linked-to from your own Web pages, but must not otherwise be redistributed electronically.

    A form allowing access to any MPEC is at the bottom of this page.


    Read MPEC 2014-Q97 Read MPEC 2014-Q99


    M.P.E.C. 2014-Q98                                Issued 2014 Aug. 30, 14:45 UT
    
         The Minor Planet Electronic Circulars contain information on unusual
             minor planets and routine data on comets.  They are published
       on behalf of Commission 20 of the International Astronomical Union by the
              Minor Planet Center, Smithsonian Astrophysical Observatory,
                              Cambridge, MA 02138, U.S.A.
    
                 Prepared using the Tamkin Foundation Computer Network
    
                                  MPC@CFA.HARVARD.EDU
                URL https://www.minorplanetcenter.net/    ISSN 1523-6714
    
                                      2014 QP362
    
    Observations:
         K14Qa2P* C2014 08 25.41495021 52 31.927-17 37 31.34         21.2 RtEQ098F51
         K14Qa2P  C2014 08 25.42552421 52 31.384-17 37 05.65         21.4 RtEQ098F51
         K14Qa2P  C2014 08 25.43610021 52 30.825-17 36 39.49         21.5 RtEQ098F51
         K14Qa2P  C2014 08 25.44670521 52 30.272-17 36 13.44         21.5 RtEQ098F51
         K14Qa2P _C2014 08 26.30730021 52 06.102-17 00 38.17         20.8 RtEQ098568
         K14Qa2P _C2014 08 26.30855221 52 06.042-17 00 34.97         20.4 RtEQ098568
         K14Qa2P _C2014 08 26.30980621 52 05.986-17 00 31.95         20.6 RtEQ098568
         K14Qa2P 2C2014 08 29.44530621 50 31.576-14 45 43.98         21.6 RtEQ098568
         K14Qa2P 2C2014 08 29.44652321 50 31.518-14 45 40.70         21.6 RtEQ098568
    
    Observer details:
    568 Mauna Kea.  Observers R. J. Wainscoat, L. Wells, D. J. Tholen.  Measurers
        M. Micheli, R. J. Wainscoat, D. J. Tholen.  2.24-m University of Hawaii
        reflector, 3.6-m Canada-France-Hawaii Telescope + CCD.
    F51 Pan-STARRS 1, Haleakala.  Observers N. Primak, A. Schultz, T. Goggia,
        M. Willman.  Measurers T. Vorobjov, B. Bolin, K. Chambers, S. Chastel,
        L. Denneau, H. Flewelling, M. Huber, E. Magnier, E. Schunova, R. Wainscoat,
        C. Waters.  1.8-m f/4.4 Ritchey-Chretien + CCD.
    
    Orbital elements:
    2014 QP362                                               Earth MOID = 0.1555 AU
    Epoch 2014 Dec. 9.0 TT = JDT 2457000.5                  MPC
    M  36.52467              (2000.0)            P               Q
    n   0.49024555     Peri.   22.09991     +0.99833314     +0.02886403
    a   1.5929187      Node   336.08184     -0.04996532     +0.86566151
    e   0.2748465      Incl.    7.08093     +0.02888599     +0.49979697
    P   2.01           H   24.4           G   0.15           U   6
    Residuals in seconds of arc
    140825 F51  0.1-  0.1+    140825 F51  0.0   0.1-    140826 568  0.0   0.0
    140825 F51  0.1+  0.1-    140826 568  0.0   0.1-    140829 568  0.0   0.0
    140825 F51  0.0   0.0     140826 568  0.0   0.1+    140829 568  0.0   0.0
    
    Ephemeris:
    2014 QP362               a,e,i = 1.59, 0.27, 7                   q = 1.1551
    Date    TT    R. A. (2000) Decl.     Delta      r     Elong.  Phase     V
    2014 07 31    22 01 05.1 -29 19 51   0.2428  1.2442   158.5    17.4    22.7
    ...
    2014 08 15    21 57 53.7 -23 46 53   0.1951  1.2050   169.2     9.0    21.9
    ...
    2014 08 23    21 53 49.2 -19 12 54   0.1784  1.1882   171.8     7.0    21.5
    ...
    2014 08 29    21 50 44.7 -15 04 55   0.1702  1.1776   169.2     9.3    21.5
    2014 08 30    21 50 17.6 -14 20 38   0.1692  1.1760   168.5     9.9    21.5
    2014 08 31    21 49 52.1 -13 35 39   0.1683  1.1745   167.7    10.6    21.5
    ...
    2014 09 06    21 48 02.6 -08 54 41   0.1650  1.1665   162.6    15.0    21.7
    ...
    2014 09 14    21 48 07.3 -02 30 37   0.1661  1.1591   155.4    21.2    21.9
    ...
    2014 09 29    21 57 54.4 +08 12 25   0.1835  1.1555   144.0    30.6    22.4
    
    A. U. Tomatic                (C) Copyright 2014 MPC           M.P.E.C. 2014-Q98
    

    Read MPEC 2014-Q97 Read MPEC 2014-Q99


    MPEC number:

    Enter an MPEC number in one of the following forms:

    • 1997-B01 (the full form)
    • J97B01 (the packed version of the full form)
    • B01 (the abbreviated form)